Location: ??????????
(48.1482°N, 37.6814°E)
Time: 15:51:06
(UTC+00:00)

Daily predictions for brighter satellites

Satellite Brightness Start Highest point End
(mag) Time Altitude Azimuth Time Altitude Azimuth Time Altitude Azimuth
NOSS 2-2 (E) 4.5 13:59:59 10° NW 14:05:12 89° NE 14:12:37 10° SE
NOSS 2-2 (D) 4.3 14:00:37 10° NW 14:05:41 77° NE 14:12:52 10° SE
Cosmos 2026 Rocket 4.1 14:01:55 10° N 14:07:53 50° ENE 14:13:45 10° SSE
Meteor PRIRODA 3.7 14:06:21 10° SSE 14:09:54 55° ENE 14:13:27 10° N
Cosmos 1634 Rocket 4.4 14:04:26 10° SSE 14:10:20 43° E 14:16:16 10° NNE
Lacrosse 5 rocket 1.6 14:07:27 10° NW 14:11:10 44° NNE 14:15:04 10° E
ERBS 4.1 14:10:33 10° NW 14:12:48 17° N 14:15:03 10° NE
Cosmos 1666 Rocket 4.4 14:12:18 10° N 14:16:15 30° ENE 14:20:07 10° SE
Cosmos 2369 3.8 14:12:15 10° NNW 14:18:02 87° ENE 14:23:46 10° SSE
H-2A R/B 2.8 14:14:31 10° ESE 14:18:46 28° ENE 14:22:58 10° N
SL-16 R/B 3.0 14:18:28 10° NNW 14:23:20 28° NE 14:28:12 10° ESE
CZ-2C R/B 2.9 14:20:17 10° SSE 14:25:07 90° N 14:29:54 10° NNW
Cosmos 2082 Rocket 2.4 14:21:14 10° S 14:26:47 57° ESE 14:32:20 10° NE
Okean O Rocket 3.0 14:24:03 10° E 14:26:59 18° ENE 14:29:55 10° NNE
Cosmos 1812 3.6 14:23:40 10° SSE 14:27:03 30° E 14:30:27 10° NNE
Cosmos 2221 4.0 14:23:51 10° SW 14:27:49 37° WNW 14:31:51 10° N
PSLV R/B 4.5 14:24:44 10° SE 14:27:58 29° ENE 14:31:17 10° N
ATLAS CENTAUR R/B 3.9 14:26:19 10° NW 14:28:11 12° NNW 14:30:05 10° N
ARGOS 4.2 14:24:54 10° ESE 14:29:06 24° ENE 14:33:17 10° N
USA 308 3.5 14:25:23 10° WNW 14:29:26 41° N 14:33:16 11° E
Cosmos 540 Rocket 3.5 14:24:42 10° SSW 14:29:48 87° ESE 14:34:58 10° NNE
FengYun 1-2 T 4.2 14:26:07 10° SSE 14:31:40 76° ENE 14:37:12 10° NNW
ATLAS CENTAUR R/B 3.0 14:21:29 10° SW 14:31:58 88° NW 14:35:54 12° NE
COSMOS 2455 2.9 14:26:03 10° SSW 14:32:03 76° ESE 14:38:07 10° NE
Cosmos 1500 Rocket 4.5 14:27:45 10° NNW 14:32:05 53° W 14:36:20 10° S
Sich 1 2.9 14:27:55 10° N 14:32:14 74° E 14:36:34 10° SSE
X-37B 3.1 14:33:09 10° SSE 14:33:24 10° SSE 14:33:40 10° SE
NOAA 6 4.0 14:32:32 10° SSE 14:37:38 69° ENE 14:42:44 10° N
SMAP 3.0 14:33:32 10° SSE 14:38:09 69° ENE 14:42:48 10° N
Cosmos 1833 Rocket 3.2 14:34:47 10° SW 14:40:20 59° WNW 14:45:56 10° NNE
Cosmos 2278 3.7 14:34:48 10° NNW 14:40:33 76° ENE 14:46:14 10° SSE
Cosmos 2333 Rocket 3.8 14:38:55 10° N 14:42:10 15° NNE 14:43:59 13° NE
deb Chang Zheng 4 4.5 14:39:57 10° ESE 14:43:31 26° ENE 14:47:06 10° N
Cosmos 1805 Rocket 4.0 14:40:15 10° NNW 14:44:34 66° W 14:48:51 10° S
CZ-4B DEB 4.2 14:39:53 10° SSE 14:45:18 63° ENE 14:50:44 10° N
Cosmos 1933 3.8 14:42:02 10° SSW 14:46:02 63° WNW 14:50:03 10° N
CZ-2C R/B 3.5 14:44:15 10° NE 14:48:39 27° E 14:53:00 10° SSE
Cosmos 2219 Rocket 3.9 14:47:42 10° N 14:50:33 14° NNE 14:51:36 13° NE
Meteor 1-14 Rocket 4.3 14:46:42 10° N 14:52:35 72° ENE 14:58:31 10° SSE
USA 305 3.2 14:49:50 10° WNW 14:53:59 50° NNE 14:56:51 19° E
Meteor 2-16 Rocket 4.4 14:49:07 10° N 14:55:14 68° ENE 15:01:20 10° SSE
Cosmos 1356 Rocket 4.4 14:52:55 10° N 14:56:29 26° ENE 15:00:03 10° SE
CZ-4B R/B 4.1 14:52:53 10° S 14:56:39 44° W 15:00:17 10° NNW
Cosmos 44 Rocket 3.2 14:53:08 10° NW 14:58:06 78° NE 15:02:52 10° SE
COSMOS 2406 3.9 14:53:59 10° SW 14:59:37 56° WNW 15:05:15 10° NNE
Cosmos 1500 3.8 14:56:22 10° NNW 15:00:03 59° W 15:03:42 10° S
MOS 1-B Rocket 4.3 14:55:14 10° NNE 15:01:08 51° E 15:07:53 10° S
Cosmos 1814 Rocket 3.9 14:57:03 10° SSW 15:02:15 79° ESE 15:07:24 10° NNE
Cosmos 1515 Rocket 4.4 15:00:22 10° SSE 15:04:11 29° E 15:06:04 21° NE
Cosmos 921 Rocket 3.4 15:02:58 10° S 15:06:55 40° ESE 15:09:08 22° NE
USA 267 3.3 15:03:05 18° ENE 15:08:16 78° SE 15:14:49 10° SW
Cosmos 1570 Rocket 3.9 15:03:41 10° SSW 15:08:55 78° ESE 15:13:48 12° NNE
CZ-4B R/B 3.2 15:06:15 10° SE 15:11:30 57° ENE 15:16:42 10° N
Cosmos 2298 Rocket 4.0 15:09:30 10° NNW 15:14:50 66° ENE 15:20:08 10° SSE
MOS 1-B 4.3 15:09:16 10° SSE 15:15:02 80° ENE 15:20:51 10° NNW
Meteor 1-27 Rocket 4.3 15:14:38 10° SSE 15:19:27 32° E 15:21:31 25° NE
CZ-2D R/B 3.3 15:16:35 10° S 15:20:24 80° WSW 15:24:14 10° NNW
Meteor 2-6 Rocket 4.1 15:16:47 10° S 15:22:28 74° E 15:28:02 10° NNE
COSMO-SKYMED 1 2.7 15:21:57 24° NE 15:24:17 49° E 15:28:29 10° S
Cosmos 2360 Rocket 2.7 15:19:19 10° NNW 15:24:33 36° NE 15:26:27 28° E
Cosmos 1633 Rocket 3.3 15:20:23 10° NNW 15:24:46 70° W 15:29:07 10° S
Cosmos 1151 Rocket 3.3 15:20:32 10° SSW 15:24:51 71° W 15:29:14 10° N
APEX 3.2 15:22:09 10° S 15:25:40 43° ESE 15:25:44 43° ESE
PAYLOAD B 4.3 15:20:32 10° SSE 15:26:09 81° WSW 15:31:46 10° NNW
USA 306 2.8 15:22:08 10° WNW 15:26:22 66° NNE 15:27:50 38° E
SJ-11-01 4.2 15:22:51 10° SSE 15:27:32 62° ENE 15:32:13 10° N
Cosmos 2237 4.4 15:22:07 10° NNW 15:27:40 48° NE 15:31:35 19° ESE
Landsat 5 4.0 15:28:30 35° ESE 15:28:30 35° ESE 15:31:49 10° SSE
Cosmos 1666 3.6 15:25:10 10° NNW 15:28:46 49° W 15:32:21 10° S
Cosmos 1900 4.3 15:25:11 10° SW 15:30:03 82° NW 15:32:48 26° NNE
Cosmos 1818 4.0 15:26:10 10° NW 15:31:36 64° WSW 15:36:58 10° SSE
YAOGAN 1 4.1 15:34:12 21° NNE 15:34:12 21° NNE 15:35:53 10° N
Cosmos 2279 Rocket 4.1 15:26:56 10° SSW 15:33:07 76° W 15:39:22 10° N
ISS -0.6 15:32:51 10° WSW 15:34:32 13° SW 15:36:13 10° SSW
Meteor 2-15 4.3 15:29:55 10° S 15:35:59 75° E 15:42:05 10° NNE
Cosmos 2266 Rocket 3.9 15:29:56 10° N 15:36:21 73° E 15:42:45 10° SSE
CZ-4C R/B 3.8 15:30:54 10° NW 15:37:59 53° WSW 15:46:07 10° SSE
NOSS 3-4 (A) 4.4 15:33:27 10° NW 15:39:31 35° NNE 15:41:25 31° ENE
NOSS 3-4 (C) 4.4 15:33:34 10° NW 15:39:37 35° NNE 15:41:29 31° ENE
ATLAS 2AS CENTAUR R/B 3.9 15:35:43 10° NW 15:41:54 26° NNE 15:43:52 24° NE
USA 234 3.4 15:36:02 10° SE 15:42:35 72° SW 15:49:07 10° WNW
CZ-2C R/B 3.7 15:41:29 10° SSW 15:43:36 14° S 15:45:03 12° SSE
SL-08 RB Rocket 3.6 15:42:12 10° SSE 15:46:46 65° ENE 15:51:20 10° N
USA 307 2.7 15:42:39 10° WNW 15:46:56 78° NNE 15:47:30 64° E
Cosmos 2322 Rocket 2.1 15:41:39 10° NNW 15:47:23 76° ENE 15:52:59 11° SSE
COSMOS 2428 4.2 15:43:34 10° N 15:46:42 21° NNE 15:46:42 21° NNE
Cosmos 2208 Rocket 4.4 15:42:50 10° SSW 15:48:13 65° WNW 15:52:19 18° NNE
SKYMED 3 4.4 15:46:21 30° NNE 15:48:28 86° ESE 15:52:48 10° SSW
ERBS 4.4 15:46:59 10° NW 15:48:11 17° NNW 15:48:11 17° NNW
Lacrosse 5 rocket 2.6 15:46:32 10° WNW 15:50:15 39° SW 15:53:16 15° SSE
Cosmos 2150 Rocket 4.2 15:45:14 10° NNW 15:50:25 70° WSW 15:55:37 10° SSE
NOSS 3-3 (A) 4.3 15:45:23 10° S 15:50:33 38° ESE 15:50:53 38° ESE
NOSS 3-3 (C) 4.3 15:45:29 10° S 15:50:40 38° ESE 15:50:58 38° ESE
Cosmos 1933 Rocket 3.4 15:47:29 10° N 15:51:52 84° E 15:56:11 10° S
Cosmos 1328 Rocket 4.4 15:50:27 10° SSW 15:54:46 50° WNW 15:58:56 11° N
Cosmos 1125 Rocket 3.8 15:51:37 10° NNW 15:56:51 67° WSW 16:02:04 10° S
Cosmos 1867 3.6 15:51:55 10° SSW 15:57:13 55° ESE 15:57:45 53° E
Cosmos 1470 Rocket 4.3 15:53:28 10° NNW 15:57:50 54° W 16:02:12 10° S
H-2A R/B 3.1 15:53:07 10° S 15:58:02 45° W 16:02:50 10° NNW
Meteor 1-10 Rocket 4.3 15:53:36 10° SSW 15:59:22 79° WNW 16:04:40 12° N
Meteor 1-11 Rocket 3.7 15:54:01 10° NNW 15:59:41 83° W 16:05:28 10° S
GEOS 3 Rocket 3.9 16:00:48 47° NE 16:00:48 47° NE 16:05:43 10° NNW
Cosmos 1544 3.7 15:57:23 10° NNW 16:00:55 53° W 16:04:27 10° S
Okean O Rocket 2.0 15:58:26 10° S 16:02:52 64° WSW 16:07:19 10° NNW
USA 32 3.9 15:58:00 10° S 16:03:13 78° E 16:05:46 31° NNE
SL-16 R/B 2.7 16:02:16 10° NNW 16:07:52 61° WSW 16:13:25 10° S
X-37B 3.1 16:05:42 10° SW 16:06:35 17° SW 16:06:35 17° SW
ARGOS 3.6 16:03:35 10° S 16:08:56 62° WSW 16:14:18 10° NNW
ATLAS CENTAUR R/B 4.1 16:07:43 10° N 16:08:07 11° N 16:08:07 11° N
Cosmos 2237 Rocket 4.3 16:06:23 10° N 16:07:15 12° N 16:07:15 12° N
USA 308 3.0 16:05:21 10° WNW 16:09:19 74° W 16:09:19 74° W
Cosmos 2082 Rocket 3.8 16:06:17 10° WSW 16:11:13 30° NW 16:15:05 15° N
SKYMED 2 4.2 16:10:34 31° N 16:12:22 55° WNW 16:16:36 10° SSW
Cosmos 1241 Rocket 4.3 16:10:24 10° SSW 16:16:43 67° ESE 16:17:20 63° E
COSMOS 2455 4.4 16:13:26 10° W 16:18:36 29° NW 16:21:45 19° N
Feng Yun 1-1 Rocket 4.5 16:16:43 10° S 16:22:38 75° WSW 16:28:29 10° NNW
Cosmos 2333 Rocket 3.0 16:22:08 10° NNW 16:26:02 40° N 16:26:02 40° N
CZ-2C R/B 3.5 16:25:19 16° N 16:29:09 45° WNW 16:34:02 10° SW
Aureole 3 Rocket 3.9 16:26:48 10° SSW 16:31:26 69° WNW 16:38:05 10° N
BREEZE-M DEB (TANK) 4.1 16:09:35 10° SW 16:33:14 70° SSE 16:34:34 59° E
USA 305 4.1 16:29:46 10° WNW 16:32:51 40° W 16:32:51 40° W
Cosmos 2219 Rocket 3.4 16:30:23 10° NNW 16:33:21 29° N 16:33:21 29° N
Nadezhda 2 Rocket 4.4 16:33:13 10° N 16:39:31 83° NE 16:39:31 83° NE
USA 267 3.6 16:50:26 50° N 16:51:06 52° NNW 16:57:23 10° W
ATLAS CENTAUR R/B 4.5 16:59:09 10° WNW 17:01:31 18° NW 17:01:31 18° NW
Cosmos 2360 Rocket 3.2 17:03:19 10° NW 17:08:17 44° W 17:08:17 44° W
NOSS 3-4 (A) 4.5 17:24:11 10° NW 17:28:51 48° NW 17:28:51 48° NW
NOSS 3-4 (C) 4.5 17:24:18 10° NW 17:28:56 47° NW 17:28:56 47° NW
ATLAS 2AS CENTAUR R/B 4.0 17:27:17 10° NW 17:31:18 33° NNW 17:31:18 33° NNW
